CDT,Max TemperatureF,Mean TemperatureF,Min TemperatureF,Max Dew PointF,MeanDew PointF,Min DewpointF,Max Humidity, Mean Humidity, Min Humidity, Max Sea Level PressureIn, Mean Sea Level PressureIn, Min Sea Level PressureIn, Max VisibilityMiles, Mean VisibilityMiles, Min VisibilityMiles, Max Wind SpeedMPH, Mean Wind SpeedMPH, Max Gust SpeedMPH,PrecipitationIn, CloudCover, Events, WindDirDegrees
2013-6-1,82,74,64,72,66,63,100,75,58,30.08,30.02,29.92,10,10,4,20,7,24,0.00,4,,183
2013-6-2,77,70,64,68,66,63,100,87,65,30.00,29.96,29.93,10,10,4,8,2,,0.00,5,,266
2013-6-3,77,68,60,64,60,55,100,75,47,30.04,29.99,29.96,10,10,8,12,5,,0.00,2,,355
2013-6-4,82,68,53,63,57,52,94,69,39,30.07,30.04,29.99,10,10,2,6,1,,0.00,1,,35
2013-6-5,75,68,60,70,65,57,100,88,73,30.04,29.98,29.91,10,10,3,14,2,,0.00,3,,155
2013-6-6,80,72,64,68,66,63,100,82,61,29.91,29.85,29.78,10,10,5,9,4,,0.00,3,,231
2013-6-7,77,70,62,66,64,61,100,84,65,29.91,29.83,29.77,10,9,2,16,3,,0.00,3,,331
2013-6-8,80,70,59,64,60,55,100,74,44,30.08,30.00,29.90,10,7,0,10,2,,0.00,2,,232
2013-6-9,78,71,64,70,66,61,100,87,69,30.09,30.03,29.95,10,9,1,13,3,,0.00,4,,149
2013-6-10,82,74,66,68,65,61,100,75,51,30.01,29.96,29.92,10,10,5,17,8,,0.00,5,,219
2013-6-11,89,78,66,73,69,64,100,75,52,30.07,30.03,30.00,10,10,2,10,3,,0.00,1,,278
2013-6-12,91,81,71,73,71,68,100,74,46,30.12,30.05,29.99,10,10,10,12,3,,0.00,0,,247
2013-6-13,89,79,68,73,69,63,94,76,58,30.00,29.93,29.85,10,10,2,18,8,23,0.00,2,,275
2013-6-14,80,70,60,63,58,54,94,66,42,30.07,30.02,29.96,10,10,10,13,5,18,0.00,0,,12
2013-6-15,84,70,57,64,61,55,94,69,45,30.15,30.10,30.06,10,10,10,12,2,,0.00,0,,187
2013-6-16,86,75,64,72,66,61,100,77,55,30.14,30.08,30.03,10,10,3,12,3,,0.00,1,,180
2013-6-17,80,73,66,72,67,64,100,90,70,30.08,30.02,29.94,10,9,1,20,4,,0.00,4,,153
2013-6-18,77,70,64,70,66,63,100,87,61,30.00,29.94,29.89,10,9,2,13,6,,0.00,4,,271
2013-6-19,84,72,60,70,64,57,100,76,48,30.11,30.05,29.98,10,10,0,8,1,,0.00,1,,358
2013-6-20,87,76,64,66,65,61,100,73,43,30.22,30.17,30.11,10,10,9,12,2,,0.00,1,,167
2013-6-21,84,74,64,70,65,63,94,76,51,30.28,30.22,30.18,10,10,8,12,3,,0.00,1,,155
2013-6-22,86,75,64,68,65,63,100,72,48,30.26,30.19,30.12,10,10,3,9,2,,0.00,1,,155
2013-6-23,84,73,62,68,65,61,94,71,48,30.22,30.16,30.11,10,10,9,10,3,,0.00,0,,185
2013-6-24,86,76,66,72,68,63,94,76,51,30.24,30.17,30.12,10,10,2,9,3,,0.00,1,,191
2013-6-25,87,78,68,72,70,66,100,79,55,30.19,30.12,30.04,10,10,5,9,3,,0.00,4,,203
2013-6-26,87,78,69,72,70,68,94,74,52,30.09,30.01,29.92,10,10,10,15,5,,0.00,1,,218
2013-6-27,89,79,69,75,69,64,88,73,55,29.98,29.91,29.87,10,10,10,18,8,,0.00,3,,254
2013-6-28,84,75,66,72,68,64,100,77,55,29.89,29.81,29.74,10,10,10,14,3,,0.00,1,,262
2013-6-29,84,74,64,68,62,57,94,65,40,29.76,29.74,29.70,10,10,0,14,5,,0.00,1,,272
2013-6-30,82,70,59,68,62,55,94,73,45,29.84,29.78,29.74,10,10,2,10,3,,0.00,2,,292